Weather History for KVIH - November, 2013

Change the Weather History Date:

Tuesday, November 12, 2013

  Actual Average Record
Temperature  
Mean Temperature 28 °F 47 °F  
Max Temperature 36 °F 57 °F 78 °F (1971)
Min Temperature 19 °F 37 °F 16 °F (1976)
Degree Days  
Heating Degree Days 37 18  
Month to date heating degree days 223 192  
Since 1 July heating degree days 584 542  
Cooling Degree Days 0 0  
Month to date cooling degree days 0 0  
Year to date cooling degree days 1125 1243  
Moisture  
Dew Point 16 °F    
Average Humidity 62    
Maximum Humidity 85    
Minimum Humidity 38    
Precipitation  
Precipitation 0.00 in 0.13 in 1.49 in (1972)
Month to date precipitation 0.94 1.52  
Year to date precipitation 39.02 38.62  
Sea Level Pressure  
Sea Level Pressure 30.69 in    
Wind  
Wind Speed 9 mph (North)    
Max Wind Speed 22 mph    
Max Gust Speed 28 mph    
Visibility 10 miles    
Events      
T = Trace of Precipitation, MM = Missing Value Source: NWS Daily Summary

Daily Weather History Graph

Daily Weather History Graph

Search for Another Location

Airport or City:

Trip Planner

Search our weather history database for the weather conditions in past years. The results will help you decide how hot, cold, wet, or windy it might be!

Date:

Astronomy

Nov. 12, 2013 Rise Set
Actual Time 6:45 AM CST 4:57 PM CST
Civil Twilight 6:17 AM CST 5:25 PM CST
Nautical Twilight 5:45 AM CST 5:56 PM CST
Astronomical Twilight 5:14 AM CST 6:27 PM CST
Moon 2:07 PM CST (11/12) 1:39 AM CST (11/12)
Length of Visible Light 11h 07m
Length of Day
10h 11m
Waxing Gibbous, 76% of the Moon is Illuminated
Nov 12
Waxing Gibbous
Nov 17
Full
Nov 25
Last Quarter
Dec 2
New
Dec 9
First Quarter

Hourly Weather History & Observations

Time (CST) Temp. Windchill Dew Point Humidity Pressure Visibility Wind Dir Wind Speed Gust Speed Precip Events Conditions
12:53 AM 28.9 °F 17.3 °F 25.0 °F 85% 30.51 in 10.0 mi North 16.1 mph 25.3 mph N/A   Overcast
1:53 AM 28.0 °F 15.7 °F 24.1 °F 85% 30.54 in 10.0 mi North 17.3 mph 26.5 mph N/A   Overcast
2:17 AM 28.0 °F 15.7 °F 23.0 °F 81% 30.53 in 10.0 mi North 17.3 mph 26.5 mph N/A   Overcast
2:53 AM 28.0 °F 16.5 °F 23.0 °F 81% 30.56 in 10.0 mi North 15.0 mph - N/A   Overcast
3:53 AM 27.0 °F 14.3 °F 19.9 °F 75% 30.59 in 10.0 mi North 17.3 mph 23.0 mph N/A   Overcast
4:53 AM 26.1 °F 14.5 °F 19.0 °F 75% 30.63 in 10.0 mi North 13.8 mph 21.9 mph N/A   Overcast
5:53 AM 26.1 °F 15.6 °F 17.1 °F 69% 30.67 in 10.0 mi North 11.5 mph - N/A   Overcast
6:29 AM 23.0 °F 11.1 °F 16.0 °F 74% 30.66 in 10.0 mi North 12.7 mph - N/A   Scattered Clouds
6:53 AM 21.9 °F 11.7 °F 17.1 °F 82% 30.72 in 10.0 mi North 9.2 mph - N/A   Clear
7:53 AM 23.0 °F 10.6 °F 16.0 °F 74% 30.76 in 10.0 mi North 13.8 mph - N/A   Clear
8:53 AM 25.0 °F 14.2 °F 16.0 °F 69% 30.77 in 10.0 mi NNE 11.5 mph - N/A   Clear
9:53 AM 28.0 °F 18.1 °F 15.1 °F 58% 30.78 in 10.0 mi NNE 11.5 mph - N/A   Clear
10:53 AM 30.0 °F 20.0 °F 15.1 °F 54% 30.78 in 10.0 mi North 12.7 mph - N/A   Clear
11:53 AM 32.0 °F 23.0 °F 15.1 °F 50% 30.77 in 10.0 mi NNW 11.5 mph 19.6 mph N/A   Clear
12:53 PM 34.0 °F 26.0 °F 15.1 °F 46% 30.74 in 10.0 mi NNW 10.4 mph - N/A   Clear
1:53 PM 35.1 °F 27.9 °F 15.1 °F 44% 30.72 in 10.0 mi NNW 9.2 mph 17.3 mph N/A   Clear
2:53 PM 35.1 °F 27.9 °F 12.9 °F 40% 30.71 in 10.0 mi NNW 9.2 mph - N/A   Clear
3:53 PM 34.0 °F 26.0 °F 12.9 °F 42% 30.72 in 10.0 mi North 10.4 mph - N/A   Clear
4:53 PM 30.0 °F 24.1 °F 12.9 °F 49% 30.72 in 10.0 mi NNW 5.8 mph - N/A   Clear
5:53 PM 28.0 °F 24.2 °F 14.0 °F 56% 30.71 in 10.0 mi North 3.5 mph - N/A   Clear
6:53 PM 25.0 °F - 14.0 °F 63% 30.71 in 10.0 mi Calm Calm - N/A   Clear
7:53 PM 21.0 °F - 15.1 °F 78% 30.72 in 10.0 mi Calm Calm - N/A   Clear
8:53 PM 21.9 °F - 14.0 °F 72% 30.73 in 10.0 mi Calm Calm - N/A   Clear
9:53 PM 21.9 °F - 14.0 °F 72% 30.72 in 10.0 mi Calm Calm - N/A   Clear
10:53 PM 21.0 °F - 12.0 °F 68% 30.71 in 10.0 mi Calm Calm - N/A   Clear
11:53 PM 19.9 °F - 12.0 °F 71% 30.71 in 10.0 mi Calm Calm - N/A   Clear